Вернуться в каталог

STARLINK-38056

АктивенСвязьSSO
NORAD 69760·PAYLOAD·🇺🇸 United States

Запущен Jul 2, 2026 с Vandenberg Space Force Base

Loading…

Ближайшие Пролёты (ближайшие 24 часа)

TLE

СвежийSource: CelesTrak SupGP

Эпоха: Sep 14, 2026, 22:45 UTC

1 69760C 26150X   26257.94840278 -.00048240  00000+0 -14971-2 0  2576
2 69760  97.2844  96.9621 0001643  92.8967 335.5174 15.33472018    15

Отслеживайте STARLINK-38056 в реальном времени с AllMySat

Download on the App Store